• In Sweden
  • List of Countries
  • For 7 days
  • Water Temperature
  • Satellite Maps
  • Weather Map
  • Weather Widgets
  • user-avatar
    Login

    Hourly Weather Liverpool

    Today, 13 December, Wednesday

    Time Temperature Precipitation Wind Pressure Humidity
    00:00 +4°C° 0.1 mm 6 mps 749 mmHg 93%
    01:00 +3°C° 0 mm 6 mps 749 mmHg 91%
    02:00 +3°C° 0 mm 6 mps 749 mmHg 89%
    03:00 +3°C° 0 mm 6 mps 749 mmHg 88%
    04:00 +3°C° 0.1 mm 6 mps 748 mmHg 88%
    05:00 +3°C° 0.1 mm 6 mps 748 mmHg 89%
    06:00 +3°C° 0.1 mm 6 mps 748 mmHg 89%
    07:00 +3°C° 0.2 mm 7 mps 747 mmHg 90%
    08:00 +3°C° 0.2 mm 7 mps 746 mmHg 91%
    09:00 +3°C° 0.2 mm 7 mps 745 mmHg 91%
    10:00 +4°C° 0.7 mm 8 mps 744 mmHg 91%
    11:00 +3°C° 0.7 mm 9 mps 743 mmHg 91%
    12:00 +5°C° 0.7 mm 9 mps 741 mmHg 91%
    13:00 +3°C° 1.2 mm 10 mps 741 mmHg 84%
    14:00 +3°C° 1.2 mm 10 mps 741 mmHg 77%
    15:00 +2°C° 1.2 mm 10 mps 741 mmHg 70%
    16:00 +2°C° 0.3 mm 9 mps 741 mmHg 72%
    17:00 +1°C° 0.3 mm 9 mps 741 mmHg 74%
    18:00 +1°C° 0.3 mm 9 mps 741 mmHg 76%
    19:00 +1°C° 0.4 mm 9 mps 741 mmHg 74%
    20:00 0°C° 0.4 mm 10 mps 742 mmHg 72%
    21:00 -1°C° 0.4 mm 11 mps 742 mmHg 70%
    22:00 0°C° 0.4 mm 10 mps 742 mmHg 72%
    23:00 +1°C° 0.4 mm 10 mps 743 mmHg 74%

    Tomorrow, 14 December, Thursday

    Time Temperature Precipitation Wind Pressure Humidity
    00:00 +1°C° 0.4 mm 10 mps 743 mmHg 75%
    01:00 +1°C° 0.4 mm 10 mps 743 mmHg 75%
    02:00 +1°C° 0.4 mm 10 mps 743 mmHg 74%
    03:00 +1°C° 0.4 mm 10 mps 743 mmHg 74%
    04:00 +1°C° 0.4 mm 10 mps 743 mmHg 74%
    05:00 +1°C° 0.4 mm 9 mps 742 mmHg 74%
    06:00 0°C° 0.4 mm 9 mps 742 mmHg 75%
    07:00 0°C° 0.3 mm 9 mps 742 mmHg 76%
    08:00 0°C° 0.3 mm 8 mps 741 mmHg 78%
    09:00 0°C° 0.3 mm 7 mps 741 mmHg 79%
    10:00 0°C° 0.4 mm 7 mps 741 mmHg 79%
    11:00 +2°C° 0.4 mm 7 mps 741 mmHg 79%
    12:00 +2°C° 0.4 mm 6 mps 740 mmHg 78%
    13:00 +2°C° 0.2 mm 6 mps 740 mmHg 79%
    14:00 +1°C° 0.2 mm 6 mps 740 mmHg 79%
    15:00 +1°C° 0.2 mm 6 mps 739 mmHg 80%
    16:00 +1°C° 0.1 mm 5 mps 739 mmHg 81%
    17:00 0°C° 0.1 mm 4 mps 739 mmHg 83%
    18:00 +1°C° 0.1 mm 3 mps 739 mmHg 84%
    19:00 +1°C° 0.3 mm 3 mps 740 mmHg 86%
    20:00 +2°C° 0.3 mm 2 mps 740 mmHg 87%
    21:00 +2°C° 0.3 mm 2 mps 741 mmHg 89%
    22:00 +2°C° 0.1 mm 2 mps 741 mmHg 89%
    23:00 +1°C° 0.1 mm 2 mps 742 mmHg 89%

    Day after tomorrow, 15 December, Friday

    Time Temperature Precipitation Wind Pressure Humidity
    00:00 +2°C° 0.1 mm 1 mps 742 mmHg 90%
    01:00 +1°C° 0.3 mm 2 mps 742 mmHg 89%
    02:00 0°C° 0.3 mm 4 mps 743 mmHg 88%
    03:00 0°C° 0.3 mm 5 mps 743 mmHg 88%
    04:00 0°C° 1.4 mm 5 mps 743 mmHg 88%
    05:00 +1°C° 1.4 mm 6 mps 744 mmHg 89%
    06:00 +2°C° 1.4 mm 6 mps 744 mmHg 90%
    07:00 +1°C° 0.3 mm 6 mps 745 mmHg 88%
    08:00 +1°C° 0.3 mm 6 mps 746 mmHg 87%
    09:00 +1°C° 0.3 mm 6 mps 748 mmHg 86%
    10:00 +1°C° 0 mm 6 mps 749 mmHg 86%
    11:00 +1°C° 0 mm 5 mps 750 mmHg 86%
    12:00 +3°C° 0 mm 4 mps 752 mmHg 86%
    13:00 +3°C° 0 mm 4 mps 752 mmHg 86%
    14:00 +1°C° 0 mm 4 mps 753 mmHg 86%
    15:00 +1°C° 0 mm 4 mps 754 mmHg 86%
    16:00 +1°C° 0.1 mm 4 mps 754 mmHg 86%
    17:00 +1°C° 0.1 mm 4 mps 755 mmHg 87%
    18:00 0°C° 0.1 mm 4 mps 755 mmHg 87%
    19:00 0°C° 0.1 mm 4 mps 756 mmHg 86%
    20:00 0°C° 0.1 mm 4 mps 757 mmHg 85%
    21:00 0°C° 0.1 mm 4 mps 757 mmHg 84%
    22:00 0°C° 0.1 mm 4 mps 758 mmHg 83%
    23:00 0°C° 0.1 mm 4 mps 758 mmHg 82%

    16 December, Saturday

    Time Temperature Precipitation Wind Pressure Humidity
    00:00 0°C° 0.1 mm 4 mps 758 mmHg 81%
    01:00 0°C° 0.1 mm 4 mps 758 mmHg 81%
    02:00 0°C° 0.1 mm 5 mps 759 mmHg 81%
    03:00 0°C° 0.1 mm 5 mps 759 mmHg 81%
    04:00 0°C° 0.1 mm 5 mps 759 mmHg 80%
    05:00 0°C° 0.1 mm 5 mps 760 mmHg 80%
    06:00 0°C° 0.1 mm 5 mps 760 mmHg 80%
    07:00 0°C° 0.1 mm 5 mps 761 mmHg 80%
    08:00 0°C° 0.1 mm 4 mps 761 mmHg 80%
    09:00 0°C° 0.1 mm 4 mps 762 mmHg 80%
    10:00 0°C° 0 mm 4 mps 762 mmHg 79%
    11:00 +1°C° 0 mm 4 mps 762 mmHg 78%
    12:00 +1°C° 0 mm 4 mps 763 mmHg 77%
    13:00 +2°C° 0 mm 3 mps 763 mmHg 77%
    14:00 +2°C° 0 mm 3 mps 763 mmHg 77%
    15:00 +2°C° 0 mm 3 mps 764 mmHg 76%
    16:00 +1°C° 0 mm 3 mps 764 mmHg 77%
    17:00 +2°C° 0 mm 2 mps 765 mmHg 77%
    18:00 +1°C° 0 mm 2 mps 765 mmHg 77%
    19:00 +1°C° 0 mm 2 mps 765 mmHg 79%
    20:00 0°C° 0 mm 3 mps 766 mmHg 80%
    21:00 0°C° 0 mm 3 mps 766 mmHg 81%
    22:00 +1°C° 0 mm 3 mps 766 mmHg 83%
    23:00 0°C° 0 mm 4 mps 766 mmHg 85%

    17 December, Sunday

    Time Temperature Precipitation Wind Pressure Humidity
    00:00 0°C° 0 mm 4 mps 766 mmHg 87%
    01:00 0°C° 0 mm 4 mps 766 mmHg 89%
    02:00 +1°C° 0 mm 4 mps 766 mmHg 91%
    03:00 +1°C° 0 mm 4 mps 766 mmHg 92%
    04:00 +1°C° 0.1 mm 4 mps 766 mmHg 93%
    05:00 +1°C° 0.1 mm 4 mps 766 mmHg 93%
    06:00 +1°C° 0.1 mm 4 mps 766 mmHg 94%
    07:00 +1°C° 0.1 mm 4 mps 766 mmHg 94%
    08:00 +2°C° 0.1 mm 3 mps 766 mmHg 93%
    09:00 +3°C° 0.1 mm 3 mps 766 mmHg 93%
    10:00 +3°C° 0 mm 4 mps 766 mmHg 93%
    11:00 +4°C° 0 mm 4 mps 766 mmHg 92%
    12:00 +4°C° 0 mm 4 mps 766 mmHg 91%
    13:00 +4°C° 0 mm 4 mps 766 mmHg 92%
    14:00 +4°C° 0 mm 4 mps 765 mmHg 92%
    15:00 +4°C° 0 mm 4 mps 765 mmHg 92%
    16:00 +3°C° 0 mm 5 mps 765 mmHg 93%
    17:00 +3°C° 0 mm 5 mps 764 mmHg 93%
    18:00 +3°C° 0 mm 5 mps 764 mmHg 94%
    19:00 +3°C° 0.3 mm 6 mps 764 mmHg 94%
    20:00 +3°C° 0.3 mm 6 mps 763 mmHg 95%
    21:00 +4°C° 0.3 mm 6 mps 763 mmHg 95%
    22:00 +4°C° 1 mm 6 mps 763 mmHg 95%
    23:00 +5°C° 1 mm 7 mps 762 mmHg 95%

    18 December, Monday

    Time Temperature Precipitation Wind Pressure Humidity
    00:00 +6°C° 1 mm 7 mps 762 mmHg 95%
    01:00 +6°C° 0.4 mm 7 mps 762 mmHg 95%
    02:00 +7°C° 0.4 mm 6 mps 762 mmHg 95%
    03:00 +8°C° 0.4 mm 6 mps 762 mmHg 95%
    04:00 +7°C° 0 mm 5 mps 763 mmHg 94%
    05:00 +6°C° 0 mm 5 mps 764 mmHg 92%
    06:00 +6°C° 0 mm 5 mps 764 mmHg 90%
    07:00 +5°C° 0 mm 5 mps 765 mmHg 90%
    08:00 +5°C° 0 mm 4 mps 766 mmHg 91%
    09:00 +4°C° 0 mm 4 mps 767 mmHg 91%
    10:00 +5°C° 0 mm 3 mps 768 mmHg 89%
    11:00 +6°C° 0 mm 2 mps 768 mmHg 87%
    12:00 +7°C° 0 mm 2 mps 769 mmHg 85%
    13:00 +8°C° 0 mm 1 mps 769 mmHg 86%
    14:00 +7°C° 0 mm 1 mps 769 mmHg 86%
    15:00 +6°C° 0 mm 0 mps 769 mmHg 86%
    16:00 +6°C° 0 mm 0 mps 770 mmHg 87%
    17:00 +6°C° 0 mm 1 mps 770 mmHg 87%
    18:00 +6°C° 0 mm 1 mps 771 mmHg 88%
    19:00 +5°C° 0 mm 1 mps 771 mmHg 88%
    20:00 +5°C° 0 mm 1 mps 771 mmHg 89%
    21:00 +5°C° 0 mm 1 mps 772 mmHg 89%
    22:00 +4°C° 0 mm 2 mps 772 mmHg 89%
    23:00 +4°C° 0 mm 2 mps 772 mmHg 90%
    Show more